Location: Tafessasset
(32.5899°N, 5.4824°W)
Time: 12:05:47
(UTC+00:00)

USA 229 DEB - Pass Details

Date: 18 February 2020
Orbit: 988 x 1224 km, 63.4° (Epoch: 26 March)

Event Time Altitude Azimuth Distance (km) Brightness Sun altitude
Exits shadow 04:41:14 52° 335° (NNW) 1,454 4.2 -30.4°
Maximum altitude 04:43:24 87° 60° (ENE) 1,205 3.8 -29.9°
Drops below altitude 10° 04:51:04 10° 151° (SSE) 3,165 6.4 -28.3°
Sets 04:53:51 0° 151° (SSE) 4,132 7.1 -27.7°
